FW6949 Weather Reports


time (UTC)temp
F
wind
direction
speed
knots
gust
knots
rain 1hr
in
rain 24hr
in
rain mn
in
humidity
%
barometer
mb
20260506191440 64 127 0.0 1.7 0.00 0.00 0.00 80 4239.2
20260506190937 63 77 0.9 1.7 0.00 0.00 0.00 80 4239.1
20260506190434 62 97 0.9 1.7 0.00 0.00 0.00 82 4239.2
20260506185931 61 33 4.3 5.2 0.00 0.00 0.00 83 4239.5
20260506185428 61 63 1.7 1.7 0.00 0.00 0.00 83 4239.5
20260506184925 61 115 1.7 1.7 0.00 0.00 0.00 83 4239.8
20260506184421 61 54 1.7 1.7 0.00 0.00 0.00 83 4240.0
20260506183919 61 79 0.0 0.9 0.00 0.00 0.00 84 4239.9
20260506183414 61 76 2.6 2.6 0.00 0.00 0.00 83 4240.2
20260506182912 61 139 1.7 2.6 0.00 0.00 0.00 83 4240.2
20260506182409 60 107 1.7 2.6 0.00 0.00 0.00 83 4240.1
20260506181906 60 126 2.6 2.6 0.00 0.00 0.00 83 4240.1
20260506181404 60 112 0.9 0.9 0.00 0.00 0.00 83 4241.1
20260506180901 60 96 2.6 2.6 0.00 0.00 0.00 82 4241.6
20260506180357 60 115 0.0 0.9 0.00 0.00 0.00 83 4240.2
20260506175854 60 37 2.6 2.6 0.00 0.00 0.00 82 4241.0
20260506175350 60 178 0.9 0.9 0.00 0.00 0.00 82 4241.6
20260506174847 60 47 1.7 2.6 0.00 0.00 0.00 82 4241.7
20260506174345 60 149 0.0 0.0 0.00 0.00 0.00 81 4241.7
20260506173842 60 242 1.7 1.7 0.00 0.00 0.00 82 4240.5
20260506173339 60 35 3.5 4.3 0.00 0.00 0.00 82 4240.2
20260506172836 60 51 0.9 1.7 0.00 0.00 0.00 82 4241.1
20260506172332 60 110 0.0 0.9 0.00 0.00 0.00 82 4241.7
20260506171830 60 120 0.9 0.9 0.00 0.00 0.00 82 4241.1
20260506171327 60 60 0.9 0.9 0.00 0.00 0.00 81 4242.0
20260506170825 60 117 0.0 0.0 0.00 0.00 0.00 82 4242.2
20260506170320 59 150 0.0 0.9 0.00 0.00 0.00 82 4242.0
20260506165820 60 78 0.0 0.0 0.00 0.00 0.00 82 4242.5
20260506165317 60 189 0.9 0.9 0.00 0.00 0.00 82 4242.3
20260506164813 59 125 0.9 0.9 0.00 0.00 0.00 83 4242.1
20260506164310 59 137 0.0 0.9 0.00 0.00 0.00 83 4242.4
20260506163807 59 62 1.7 1.7 0.00 0.00 0.00 83 4242.3
20260506163302 59 134 0.0 0.9 0.00 0.00 0.00 84 4242.7
20260506162757 59 154 0.9 0.9 0.00 0.00 0.00 84 4242.8
20260506162256 59 139 0.9 0.9 0.00 0.00 0.00 85 4242.7
20260506161753 58 106 0.9 0.9 0.00 0.00 0.00 85 4242.4
20260506161250 59 79 0.9 1.7 0.00 0.00 0.00 84 4242.8
20260506160748 59 141 1.7 1.7 0.00 0.00 0.00 85 4242.4
20260506160244 58 122 0.0 0.9 0.00 0.00 0.00 85 4241.8
20260506155743 58 133 0.9 0.9 0.00 0.00 0.00 84 4241.6
20260506155239 58 90 0.9 0.9 0.00 0.00 0.00 84 4241.8
20260506153346 59 56 0.9 1.7 0.00 0.00 0.00 83 4241.2
20260506152843 59 120 0.0 0.9 0.00 0.00 0.00 83 4240.9
20260506152340 59 55 0.9 1.7 0.00 0.00 0.00 83 4241.0
20260506151839 59 108 0.9 1.7 0.00 0.00 0.00 83 4241.1
20260506151335 59 76 0.9 0.9 0.00 0.00 0.00 83 4240.9
20260506150833 58 122 0.9 0.9 0.00 0.00 0.00 83 4241.1
20260506150329 58 98 1.7 1.7 0.00 0.00 0.00 82 4241.0
20260506145826 59 191 1.7 1.7 0.00 0.00 0.00 82 4240.9
20260506145322 59 113 1.7 1.7 0.00 0.00 0.00 81 4240.7
20260506144820 59 153 0.9 1.7 0.00 0.00 0.00 82 4240.5
20260506144316 59 112 0.9 0.9 0.00 0.00 0.00 82 4240.4
20260506143815 58 55 0.9 1.7 0.00 0.00 0.00 81 4240.6
20260506143312 59 94 1.7 1.7 0.00 0.00 0.00 81 4240.5
20260506142810 58 126 0.9 1.7 0.00 0.00 0.00 81 4240.2
20260506142307 59 97 0.9 1.7 0.00 0.00 0.00 82 4240.4
20260506141806 59 69 1.7 1.7 0.00 0.00 0.00 81 4240.3
20260506141303 58 117 1.7 1.7 0.00 0.00 0.00 81 4240.2
20260506140801 58 86 2.6 2.6 0.00 0.00 0.00 81 4240.3
20260506140257 59 84 2.6 2.6 0.00 0.00 0.00 81 4240.0
20260506135755 59 101 0.0 0.9 0.00 0.00 0.00 81 4239.7
20260506135251 59 121 0.9 0.9 0.00 0.00 0.00 81 4240.1
20260506134748 59 90 0.0 0.0 0.00 0.00 0.00 81 4240.1
20260506134244 59 92 0.9 1.7 0.00 0.00 0.00 81 4240.0
20260506133741 59 103 0.0 0.0 0.00 0.00 0.00 80 4239.7
20260506133238 58 117 0.9 0.9 0.00 0.00 0.00 80 4239.9
20260506132735 59 108 0.9 0.9 0.00 0.00 0.00 80 4239.8
20260506132232 59 128 0.9 0.9 0.00 0.00 0.00 80 4240.1
20260506131730 59 98 1.7 1.7 0.00 0.00 0.00 79 4240.0
20260506131226 59 128 0.9 0.9 0.00 0.00 0.00 79 4239.8
20260506130723 59 108 0.9 0.9 0.00 0.00 0.00 79 4239.7
20260506130220 59 119 1.7 1.7 0.00 0.00 0.00 78 4239.9
20260506125718 59 141 0.0 0.9 0.00 0.00 0.00 78 4239.6
20260506125215 59 67 1.7 2.6 0.00 0.00 0.00 78 4239.5
20260506124713 60 94 0.0 0.9 0.00 0.00 0.00 78 4239.7
20260506124211 60 133 0.9 0.9 0.00 0.00 0.00 78 4239.5
20260506123708 60 123 0.9 0.9 0.00 0.00 0.00 78 4239.2
20260506123207 59 105 0.9 1.7 0.00 0.00 0.00 79 4239.1
20260506122703 59 65 0.0 0.0 0.00 0.00 0.00 80 4238.8
20260506122201 59 157 0.9 0.9 0.00 0.00 0.00 79 4238.9
20260506121658 59 128 0.9 0.9 0.00 0.00 0.00 80 4239.1
20260506121154 60 126 1.7 1.7 0.00 0.00 0.00 80 4238.7
20260506120652 60 84 0.9 1.7 0.00 0.00 0.00 80 4238.7
20260506120149 60 131 0.0 0.9 0.00 0.00 0.00 80 4238.5
20260506115648 60 122 0.9 0.9 0.00 0.00 0.00 81 4238.3
20260506115146 60 133 0.0 0.9 0.00 0.00 0.00 81 4238.3
20260506114643 60 128 0.0 0.0 0.00 0.00 0.00 81 4238.2
20260506114141 60 140 0.0 0.0 0.00 0.00 0.00 82 4238.2
20260506113639 60 99 0.9 0.9 0.00 0.00 0.00 82 4238.2
20260506113136 60 125 0.9 0.9 0.00 0.00 0.00 82 4237.9
20260506112632 61 123 0.9 0.9 0.00 0.00 0.00 82 4237.9
20260506112130 61 144 0.0 0.9 0.00 0.00 0.00 81 4237.7
20260506111627 62 128 0.0 0.9 0.00 0.00 0.00 79 4237.6
20260506111125 62 108 1.7 1.7 0.00 0.00 0.00 78 4237.6
20260506110622 62 116 0.0 0.9 0.00 0.00 0.00 78 4237.6
20260506110119 62 137 0.0 0.9 0.00 0.00 0.00 78 4237.4
20260506105616 62 101 0.0 0.9 0.00 0.00 0.00 77 4237.4
20260506105113 62 129 0.0 0.0 0.00 0.00 0.00 77 4237.3
20260506104611 62 101 0.0 0.9 0.00 0.00 0.00 77 4237.4
20260506104108 62 101 0.9 0.9 0.00 0.00 0.00 77 4237.1
20260506103605 63 96 0.9 0.9 0.00 0.00 0.00 77 4237.0
20260506103102 62 120 0.0 0.0 0.00 0.00 0.00 77 4237.0
20260506102600 62 127 0.0 0.0 0.00 0.00 0.00 77 4237.0
20260506102057 62 138 0.0 0.9 0.00 0.00 0.00 77 4237.3
20260506101554 62 56 0.0 0.9 0.00 0.00 0.00 78 4237.1
20260506101051 62 102 0.0 0.9 0.00 0.00 0.00 77 4237.2
20260506100549 62 103 0.9 0.9 0.00 0.00 0.00 77 4237.0
20260506100047 63 71 0.9 1.7 0.00 0.00 0.00 77 4237.0
20260506095545 63 111 0.9 0.9 0.00 0.00 0.00 77 4237.1
20260506095041 63 113 0.0 0.9 0.00 0.00 0.00 77 4236.7
20260506094539 63 107 0.0 0.0 0.00 0.00 0.00 77 4236.5
20260506094037 63 141 0.0 0.0 0.00 0.00 0.00 76 4236.7
20260506093535 64 95 1.7 1.7 0.00 0.00 0.00 75 4236.7
20260506093032 64 209 0.9 0.9 0.00 0.00 0.00 75 4236.6
20260506092530 64 131 0.0 0.0 0.00 0.00 0.00 75 4236.7
20260506092026 64 128 0.9 0.9 0.00 0.00 0.00 75 4236.5
20260506091525 64 117 0.0 0.9 0.00 0.00 0.00 74 4236.6
20260506091022 64 127 0.9 0.9 0.00 0.00 0.00 74 4236.6
20260506090519 64 72 0.9 0.9 0.00 0.00 0.00 74 4236.8
20260506090015 65 121 0.0 0.0 0.00 0.00 0.00 73 4236.7
20260506085513 65 118 0.9 0.9 0.00 0.00 0.00 73 4236.3
20260506085009 65 75 0.9 2.6 0.00 0.00 0.00 73 4236.6
20260506084506 65 105 1.7 1.7 0.00 0.00 0.00 73 4236.5
20260506084002 65 120 1.7 1.7 0.00 0.00 0.00 73 4236.7
20260506083500 65 150 0.9 0.9 0.00 0.00 0.00 73 4236.4
20260506082956 66 246 1.7 1.7 0.00 0.00 0.00 73 4236.1
20260506082454 66 89 0.9 1.7 0.00 0.00 0.00 73 4236.2
20260506081949 66 96 1.7 1.7 0.00 0.00 0.00 73 4236.2
20260506081448 66 121 0.9 0.9 0.00 0.00 0.00 73 4236.3
20260506080945 67 130 0.9 1.7 0.00 0.00 0.00 73 4236.1
20260506080442 67 120 0.9 0.9 0.00 0.00 0.00 74 4236.3
20260506073426 70 64 0.9 1.7 0.00 0.00 0.00 74 4236.0
20260506072923 70 128 0.9 0.9 0.00 0.00 0.00 74 4236.0
20260506072420 71 84 2.6 2.6 0.00 0.00 0.00 74 4235.7
20260506071918 71 137 0.9 0.9 0.00 0.00 0.00 74 4235.5
20260506071416 71 105 0.9 0.9 0.00 0.00 0.00 74 4235.5
20260506070912 72 105 1.7 1.7 0.00 0.00 0.00 74 4235.3
20260506070409 73 92 0.0 0.0 0.00 0.00 0.00 74 4235.7
20260506062346 78 152 0.0 0.0 0.00 0.00 0.00 79 4235.2
20260506061842 78 174 0.9 0.9 0.00 0.00 0.00 79 4235.2
20260506061339 78 160 0.0 0.0 0.00 0.00 0.00 79 4235.2
20260506060837 78 150 0.9 0.9 0.00 0.00 0.00 79 4235.2
20260506060335 78 152 0.9 0.9 0.00 0.00 0.00 79 4235.4
20260506051307 77 159 0.0 0.9 0.00 0.00 0.00 80 4236.0
20260506050804 78 152 0.0 0.0 0.00 0.00 0.00 80 4235.7
20260506050302 78 147 0.0 0.9 0.00 0.00 0.00 79 4235.5
20260506044752 78 170 0.9 0.9 0.00 0.00 0.00 78 4235.1
20260506044249 78 170 0.9 0.9 0.00 0.00 0.00 78 4235.0
20260506043747 78 150 0.0 0.0 0.00 0.00 0.00 78 4235.1
20260506043244 78 146 0.0 0.0 0.00 0.00 0.00 78 4235.2
20260506042743 78 156 0.9 0.9 0.00 0.00 0.00 78 4235.0
20260506042241 78 146 0.0 0.0 0.00 0.00 0.00 78 4235.2
20260506041739 78 152 0.0 0.0 0.00 0.00 0.00 78 4235.0
20260506041236 78 158 0.0 0.9 0.00 0.00 0.00 78 4234.9
20260506040733 78 142 0.0 0.0 0.00 0.00 0.00 78 4234.8
20260506040230 78 153 0.0 0.0 0.00 0.00 0.00 77 4234.7
20260506035727 78 156 0.9 0.9 0.00 0.00 0.00 77 4234.6
20260506035224 78 145 0.9 0.9 0.00 0.00 0.00 77 4234.7
20260506034721 78 143 0.9 0.9 0.00 0.00 0.00 77 4234.5
20260506034218 78 180 0.9 0.9 0.00 0.00 0.00 77 4234.4
20260506033715 78 175 0.9 0.9 0.00 0.00 0.00 77 4234.2
20260506033212 78 148 0.0 0.9 0.00 0.00 0.00 77 4234.1
20260506032709 78 137 0.0 0.0 0.00 0.00 0.00 77 4234.0
20260506032206 78 147 0.0 0.0 0.00 0.00 0.00 77 4233.7
20260506031702 78 150 0.0 0.0 0.00 0.00 0.00 77 4233.7
20260506031200 78 172 0.0 0.0 0.00 0.00 0.00 77 4233.6
20260506030658 78 148 0.0 0.0 0.00 0.00 0.00 77 4233.6
20260506030155 78 151 0.0 0.0 0.00 0.00 0.00 77 4233.6
20260506025652 78 170 0.0 0.0 0.00 0.00 0.00 77 4233.8
20260506025148 78 134 0.0 0.0 0.00 0.00 0.00 77 4233.5
20260506024646 79 145 0.9 0.9 0.00 0.00 0.00 76 4233.6
20260506024142 79 148 0.0 0.9 0.00 0.00 0.00 76 4233.3
20260506023638 79 162 0.9 0.9 0.00 0.00 0.00 76 4233.4
20260506023135 79 156 0.0 0.0 0.00 0.00 0.00 76 4233.3
20260506022633 79 150 0.0 0.0 0.00 0.00 0.00 76 4233.3
20260506022130 79 167 0.9 0.9 0.00 0.00 0.00 76 4233.5
20260506021627 79 169 0.0 0.9 0.00 0.00 0.00 76 4233.0
20260506021125 79 158 0.9 0.9 0.00 0.00 0.00 76 4232.9
20260506020622 79 159 0.9 0.9 0.00 0.00 0.00 76 4233.2
20260506020119 78 137 0.0 0.9 0.00 0.00 0.00 77 4233.2
20260506015617 78 159 0.9 0.9 0.00 0.00 0.00 77 4233.4
20260506015114 79 178 0.9 0.9 0.00 0.00 0.00 77 4233.4
20260506014611 78 157 0.0 0.9 0.00 0.00 0.00 77 4233.6
20260506014106 79 141 0.0 0.0 0.00 0.00 0.00 76 4233.7
20260506013605 79 140 0.0 0.0 0.00 0.00 0.00 75 4233.8
20260506013102 80 141 0.0 0.0 0.00 0.00 0.00 74 4233.4
20260506012558 80 134 0.0 0.0 0.00 0.00 0.00 73 4233.3
20260506012054 80 148 0.0 0.0 0.00 0.00 0.00 73 4233.3
20260506011552 81 152 0.0 0.0 0.00 0.00 0.00 72 4233.0
20260506011048 81 145 0.0 0.9 0.00 0.00 0.00 71 4233.0
20260506010548 81 144 0.0 0.0 0.00 0.00 0.00 71 4233.1
20260506010044 81 129 0.0 0.9 0.00 0.00 0.00 70 4233.1
20260506005541 81 169 0.9 0.9 0.00 0.00 0.00 70 4233.0
20260506005037 82 160 0.9 0.9 0.00 0.00 0.00 70 4233.1
20260506004535 82 170 0.9 0.9 0.00 0.00 0.00 69 4232.9
20260506004031 82 167 0.0 0.9 0.00 0.00 0.00 68 4233.0
20260506003528 82 144 0.0 0.0 0.00 0.00 0.00 68 4232.7
20260506003023 83 189 0.9 0.9 0.00 0.00 0.00 67 4232.8
20260506002520 82 148 0.0 0.9 0.00 0.00 0.00 67 4232.6
20260506002015 82 161 0.9 0.9 0.00 0.00 0.00 68 4232.7
20260506001512 83 174 0.0 0.9 0.00 0.00 0.00 68 4232.9
20260506001010 83 154 0.9 0.9 0.00 0.00 0.00 67 4232.6
20260506000507 83 127 0.0 0.9 0.00 0.00 0.00 66 4232.7
20260506000004 83 173 0.0 0.9 0.00 0.00 0.00 66 4232.6
20260505235502 83 152 0.0 0.0 0.00 0.00 0.00 66 4232.6
20260505234958 84 205 0.9 0.9 0.00 0.00 0.00 65 4232.8
20260505234456 84 64 0.9 0.9 0.00 0.00 0.00 65 4232.6
20260505233952 84 171 0.9 0.9 0.00 0.00 0.00 65 4232.3
20260505233450 84 166 0.9 0.9 0.00 0.00 0.00 65 4232.3
20260505232947 84 150 0.0 0.0 0.00 0.00 0.00 64 4232.4
20260505232445 84 177 1.7 1.7 0.00 0.00 0.00 64 4232.4
20260505231942 84 156 0.9 0.9 0.00 0.00 0.00 64 4232.6
20260505231439 84 216 0.9 1.7 0.00 0.00 0.00 64 4232.3
20260505230937 84 178 0.9 0.9 0.00 0.00 0.00 64 4232.3
20260505230435 84 150 0.0 0.9 0.00 0.00 0.00 64 4232.5
20260505225931 84 146 0.0 0.9 0.00 0.00 0.00 63 4232.1
20260505225428 84 246 1.7 2.6 0.00 0.00 0.00 62 4232.2
20260505224924 84 149 1.7 1.7 0.00 0.00 0.00 63 4232.3
20260505224421 84 199 1.7 2.6 0.00 0.00 0.00 63 4232.2
20260505223918 84 152 0.9 0.9 0.00 0.00 0.00 62 4232.2
20260505223415 85 201 0.9 1.7 0.00 0.00 0.00 60 4232.2
20260505222911 86 142 0.9 0.9 0.00 0.00 0.00 61 4232.2
20260505222408 86 190 0.9 0.9 0.00 0.00 0.00 60 4232.3
20260505221904 86 167 0.9 1.7 0.00 0.00 0.00 60 4232.1
20260505221401 86 209 0.9 0.9 0.00 0.00 0.00 58 4232.3
20260505220858 87 187 1.7 1.7 0.00 0.00 0.00 57 4232.1
20260505220355 88 70 0.9 1.7 0.00 0.00 0.00 57 4231.9
20260505215853 88 211 2.6 4.3 0.00 0.00 0.00 57 4231.7
20260505215351 88 135 0.9 0.9 0.00 0.00 0.00 59 4232.1
20260505214848 88 139 0.9 0.9 0.00 0.00 0.00 56 4232.1
20260505214346 89 128 2.6 2.6 0.00 0.00 0.00 54 4232.2
20260505213843 87 147 0.0 0.9 0.00 0.00 0.00 57 4232.4
20260505213341 86 255 1.7 1.7 0.00 0.00 0.00 59 4232.1
20260505212836 87 176 0.9 1.7 0.00 0.00 0.00 59 4232.0
20260505212334 88 226 1.7 1.7 0.00 0.00 0.00 57 4232.3
20260505211830 89 226 2.6 2.6 0.00 0.00 0.00 56 4232.2
20260505211328 91 155 0.9 0.9 0.00 0.00 0.00 53 4232.2
20260505210824 90 226 2.6 4.3 0.00 0.00 0.00 53 4232.3
20260505210321 89 165 1.7 2.6 0.00 0.00 0.00 55 4232.4
20260505205818 90 192 1.7 1.7 0.00 0.00 0.00 55 4232.4
20260505205316 90 141 2.6 2.6 0.00 0.00 0.00 55 4232.7
20260505204812 88 175 0.9 1.7 0.00 0.00 0.00 56 4232.8
20260505204311 88 150 0.9 0.9 0.00 0.00 0.00 58 4232.7
20260505203807 86 213 2.6 2.6 0.00 0.00 0.00 58 4232.6
20260505203304 87 3 2.6 4.3 0.00 0.00 0.00 58 4232.6
20260505202800 87 223 3.5 5.2 0.00 0.00 0.00 58 4232.5
20260505202256 86 166 0.9 0.9 0.00 0.00 0.00 60 4232.4
20260505201753 85 206 2.6 2.6 0.00 0.00 0.00 60 4232.7
20260505201251 86 207 1.7 2.6 0.00 0.00 0.00 60 4232.6
20260505200749 86 154 0.0 0.9 0.00 0.00 0.00 60 4232.7
20260505200246 86 116 2.6 4.3 0.00 0.00 0.00 60 4232.7
20260505195741 85 176 0.9 0.9 0.00 0.00 0.00 62 4233.2
20260505195239 85 178 1.7 1.7 0.00 0.00 0.00 62 4233.0
20260505194736 84 230 2.6 4.3 0.00 0.00 0.00 63 4233.2
20260505194232 85 179 0.9 1.7 0.00 0.00 0.00 63 4233.2
20260505193728 85 96 2.6 2.6 0.00 0.00 0.00 62 4233.1
20260505193226 84 185 1.7 2.6 0.00 0.00 0.00 63 4233.3
20260505192724 85 216 1.7 2.6 0.00 0.00 0.00 62 4233.0
20260505192221 85 176 0.9 0.9 0.00 0.00 0.00 62 4233.0